User: anonymous   Login
Location: Unspecified
(0.0000°N, 0.0000°E)
Time: 10:21:20
(UTC+00:00)
Language:

Aussat K2 - Orbit

View from above orbital plane
View from above orbital plane
View from above satellite
View from above satellite

Ground track
Ground track

The orbit data is extracted from the following two-line orbital elements,

1 16275U 85109C   15022.32081749 -.00000283  00000-0  00000+0 0  5605
2 16275 014.8098 018.0833 0004826 204.1227 341.0957 00.99951461 96451
Epoch (UTC): 22 January 2015 07:41:58
Eccentricity: 0.0004826
inclination: 14.8098°
perigee height: 35856 km
apogee height: 35896 km
right ascension of ascending node: 18.0833°
argument of perigee: 204.1227°
revolutions per day: 0.99951461
mean anomaly at epoch: 341.0957°
orbit number at epoch: 9645

The dashed part of the orbit path shows where the satellite is in the earth's shadow,  

DLR